This is the latest recevied weather packets stored in our database for station/object JH7UAX-10. If no packets are shown the sender has not sent any weather packets the latest 10 day(s).
| Time | Temp. | Humidity | Pressure | Rain* | Wind** | Luminosity | Snow |
|---|---|---|---|---|---|---|---|
| 1788174855 | 21.67° C | 88% | 1029.1 hPa | 0 mm | - | - | - |
| 1788172154 | 21.11° C | 88% | 1028.9 hPa | 0 mm | - | - | - |
| 1788168569 | 21.67° C | 87% | 1028.7 hPa | 0 mm | - | - | - |
| 1788167653 | 21.67° C | 87% | 1028.6 hPa | 0 mm | - | - | - |
| 1788166753 | 21.67° C | 86% | 1028.3 hPa | 0 mm | - | - | - |
| 1788165854 | 22.22° C | 85% | 1028.3 hPa | 0 mm | - | - | - |
| 1788165168 | 22.22° C | 84% | 1028.4 hPa | 0 mm | - | - | - |
| 1788164954 | 22.22° C | 84% | 1028.4 hPa | 0 mm | - | - | - |
| 1788164055 | 22.78° C | 84% | 1028 hPa | 0 mm | - | - | - |
| 1788163155 | 22.78° C | 83% | 1028.1 hPa | 0 mm | - | - | - |
| 1788162253 | 22.78° C | 83% | 1028 hPa | 0 mm | - | - | - |
| 1788160454 | 23.89° C | 80% | 1027.8 hPa | 0 mm | - | - | - |
| 1788159758 | 23.89° C | 79% | 1027.6 hPa | 0 mm | - | - | - |
| 1788159554 | 23.89° C | 79% | 1027.6 hPa | 0 mm | - | - | - |
| 1788158655 | 24.44° C | 77% | 1027.4 hPa | 0 mm | - | - | - |
| 1788157754 | 25.56° C | 77% | 1027.3 hPa | 0 mm | - | - | - |
| 1788155954 | 25.56° C | 76% | 1027.1 hPa | 0 mm | - | - | - |
| 1788155054 | 25.56° C | 75% | 1027.1 hPa | 0 mm | - | - | - |
| 1788154154 | 25.56° C | 75% | 1027.1 hPa | 0 mm | - | - | - |
| 1788153254 | 25.56° C | 74% | 1027.2 hPa | 0 mm | - | - | - |
| 1788152353 | 26.11° C | 72% | 1027.4 hPa | 0 mm | - | - | - |
| 1788151454 | 26.11° C | 73% | 1027.5 hPa | 0 mm | - | - | - |
| 1788150724 | 26.11° C | 72% | 1027.4 hPa | 0 mm | - | - | - |
| 1788150554 | 26.11° C | 72% | 1027.4 hPa | 0 mm | - | - | - |
| 1788149704 | 26.11° C | 72% | 1027.4 hPa | 0 mm | - | - | - |
* Rain latest hour (hover to see other rain measurements)
** Current wind speed in m/s (hover to see current wind gust speed)